This is the latest recevied weather packets stored in our database for station/object WI5ARD. If no packets are shown the sender has not sent any weather packets the latest 10 day(s).
| Time | Temp. | Humidity | Pressure | Rain* | Wind** | Luminosity | Snow |
|---|---|---|---|---|---|---|---|
| 1777573524 | 23.33° C | 90% | 1013.6 hPa | 0 mm | - | 482 W/m² | - |
| 1777572623 | 23.33° C | 93% | 1013.5 hPa | 0 mm | - | 473 W/m² | - |
| 1777572041 | 22.78° C | 95% | 1013.4 hPa | 0 mm | - | 591 W/m² | - |
| 1777570522 | 21.67° C | 97% | 1013.8 hPa | 0 mm | - | 821 W/m² | - |
| 1777569923 | 21.11° C | 97% | 1014.3 hPa | 0.25 mm | - | 478 W/m² | - |
| 1777567540 | 21.11° C | 97% | 1014.3 hPa | 1.52 mm | - | 149 W/m² | - |
| 1777566922 | 20.56° C | 97% | 1014.2 hPa | 1.52 mm | - | 281 W/m² | - |
| 1777565740 | 20.56° C | 97% | 1014.3 hPa | 1.27 mm | - | 107 W/m² | - |
| 1777565422 | 20.56° C | 97% | 1014.5 hPa | 1.02 mm | - | 67 W/m² | - |
| 1777563940 | 20.56° C | 97% | 1015.1 hPa | 0 mm | - | 90 W/m² | - |
| 1777562138 | 20.56° C | 97% | 1014.4 hPa | 0.25 mm | - | 271 W/m² | - |
| 1777561236 | 20° C | 97% | 1014.6 hPa | 0.25 mm | - | 206 W/m² | - |
| 1777560338 | 19.44° C | 97% | 1014.3 hPa | 0.25 mm | - | 151 W/m² | - |
| 1777558536 | 19.44° C | 97% | 1014.3 hPa | 0 mm | - | 49 W/m² | - |
| 1777557636 | 19.44° C | 97% | 1014.2 hPa | 0 mm | - | 79 W/m² | - |
| 1777554940 | 19.44° C | 97% | 1014.1 hPa | 0 mm | - | 28 W/m² | - |
| 1777554320 | 19.44° C | 97% | 1013.8 hPa | 0 mm | - | 32 W/m² | - |
| 1777554048 | 19.44° C | 97% | 1013.8 hPa | 0 mm | - | 49 W/m² | - |
| 1777552241 | 19.44° C | 97% | 1013.6 hPa | 0 mm | - | 42 W/m² | - |
| 1777551017 | 19.44° C | 97% | 1013.5 hPa | 0 mm | - | 14 W/m² | - |
| 1777550434 | 19.44° C | 97% | 1013.2 hPa | 0 mm | - | 16 W/m² | - |
| 1777549538 | 19.44° C | 97% | 1013.2 hPa | 0 mm | - | 28 W/m² | - |
| 1777548020 | 19.44° C | 97% | 1012.9 hPa | 0 mm | - | 0 W/m² | - |
| 1777547420 | 18.89° C | 97% | 1012.9 hPa | 0 mm | - | 0 W/m² | - |
| 1777545325 | 19.44° C | 97% | 1012.5 hPa | 0 mm | - | 0 W/m² | - |
* Rain latest hour (hover to see other rain measurements)
** Current wind speed in m/s (hover to see current wind gust speed)